Flag for Australia Weather past 2 weeks in Cairns, Queensland, Australia

Now
79 °F

Broken clouds.


Feels Like: 82 °F
Forecast: 74 / 81 °F
Wind: 10 mph from South

Location: Cairns Airport


UV Index: 0 (Low)

Visibility: N/A


Pressure: 29.95 "Hg

Humidity: 79%

Dew point: 72 °F

Location of CairnsLocation

Historic Weather in Cairns

°F

Cairns temperature yesterday

Maximum temperature yesterday: 82 °F (at 11:30 AM)
Minimum temperature yesterday: 72 °F (at 12:30 AM)
Average temperature yesterday: 77 °F

Past Weeks' High & Low Weather Summary

 TemperatureHumidityPressure
High88 °F (Apr 13, 1:00 PM)100% (Apr 12, 12:00 PM)30.01 "Hg (Apr 12, 12:00 PM)
Low72 °F (Apr 20, 12:30 AM)48% (Apr 19, 3:30 PM)29.42 "Hg (Apr 12, 5:00 PM)
Average79 °F76%29.84 "Hg
* Reported Apr 6 11:00 AM — Apr 21 11:30 AM, Cairns, Weather by CustomWeather, © 2014

Note: Actual official high and low records may vary slightly from our data, if they occured in-between our weather recording intervals... More about our weather records

Advertising

Historic Weather Conditions — Data for Previous 24 hours

 ConditionsComfort  
Time TempWeatherWind HumidityBarometerVisibility
11:30 AM
Apr 21
75 °FBroken clouds.8 mph89%29.98 "HgN/A
11:00 AM77 °FScattered showers. Broken clouds.10 mph79%29.98 "HgN/A
10:00 AM77 °FSprinkles. Broken clouds.14 mph79%30.01 "HgN/A
9:00 AM77 °FBroken clouds.13 mph69%29.98 "HgN/A
8:30 AM77 °FBroken clouds.13 mph69%29.98 "HgN/A
8:00 AM77 °FPartly sunny.13 mph69%29.98 "HgN/A
7:00 AM77 °FPartly sunny.10 mph69%29.95 "HgN/A
6:30 AM75 °FBroken clouds.12 mph69%29.95 "HgN/A
6:00 AM75 °FPartly cloudy.12 mph74%29.95 "HgN/A
5:30 AM75 °FPassing clouds.10 mph74%29.92 "HgN/A
5:00 AM75 °FOvercast.12 mph74%29.92 "HgN/A
4:30 AM75 °FPassing clouds.10 mph74%29.92 "HgN/A
4:00 AM75 °FPassing clouds.12 mph78%29.92 "HgN/A
3:30 AM75 °FPassing clouds.10 mph78%29.92 "HgN/A
3:00 AM75 °FPassing clouds.13 mph74%29.92 "HgN/A
2:30 AM75 °FPassing clouds.10 mph74%29.92 "HgN/A
2:00 AM75 °FPartly cloudy.13 mph74%29.92 "HgN/A
1:30 AM75 °FScattered showers. Passing clouds.12 mph74%29.92 "HgN/A
1:00 AM75 °FMild.13 mph74%29.95 "HgN/A
12:30 AM75 °FPartly cloudy.13 mph69%29.95 "HgN/A
12:00 AM75 °FPassing clouds.10 mph69%29.95 "HgN/A
11:30 PM
Apr 20
75 °FPassing clouds.10 mph69%29.95 "HgN/A
11:00 PM75 °FPassing clouds.10 mph65%29.95 "HgN/A
10:30 PM75 °FPassing clouds.12 mph65%29.98 "HgN/A
10:00 PM75 °FPassing clouds.12 mph65%29.98 "HgN/A
9:30 PM75 °FPassing clouds.10 mph65%29.98 "HgN/A
9:00 PM75 °FPassing clouds.12 mph65%29.98 "HgN/A
8:30 PM77 °FPassing clouds.13 mph61%29.98 "HgN/A
8:00 PM77 °FPassing clouds.14 mph61%29.98 "HgN/A
7:30 PM77 °FPartly cloudy.14 mph61%29.95 "HgN/A
7:00 PM77 °FPartly cloudy.14 mph61%29.95 "HgN/A
6:30 PM79 °FPartly cloudy.15 mph58%29.95 "HgN/A
6:00 PM79 °FBroken clouds.18 mph58%29.95 "HgN/A
5:30 PM81 °FBroken clouds.17 mph54%29.92 "HgN/A
5:00 PM81 °FBroken clouds.20 mph54%29.92 "HgN/A
4:30 PM81 °FPartly sunny.21 mph54%29.92 "HgN/A
4:00 PM81 °FPartly sunny.20 mph51%29.89 "HgN/A
3:30 PM82 °FPartly sunny.21 mph48%29.89 "HgN/A
3:00 PM81 °FPartly sunny.21 mph51%29.89 "HgN/A
2:30 PM82 °FPartly sunny.21 mph51%29.89 "HgN/A
2:00 PM82 °FPartly sunny.20 mph51%29.92 "HgN/A
1:30 PM82 °FPartly sunny.20 mph48%29.92 "HgN/A
1:00 PM82 °FPartly sunny.20 mph51%29.92 "HgN/A
Weather by CustomWeather, © 2014

See weather overview